Погода в Калиновском

Россия / Ростовская область     49°33′28″N   41°23′33″E
темп.,
°C
ветер,
м/с
пор.,
м/с
влажн.,
%
обл.,
%
осадки,
мм/ч
давл.,
гПа
погр.,
м
21 апреля, ср
ср2100:00+10ююз6149119 0.0 1007668
03:00+9ююз81387100 0.1 1008658
06:00+9ю81388100 0.0 1008926
09:00+10ююз71289100 0.1 10111104
12:00+13зюз81160100 0.1 10141398
15:00+13юз796496 0.9 10151057
18:00+14юз485598 0.1 1015305
21:00+10ююз487689 0.3 1018213
22 апреля, чт
чт2200:00+9ююз488171 0.1 1019140
03:00+7ююз48915 0.1 1020146
06:00+7юз37896 0.0 1021147
09:00+12зюз346771 0.0 1022411
12:00+16юз33486 0.0 10221617
15:00+16зюз3344100 0.0 10211812
18:00+15ю225897 0.4 1022109
21:00+12ююв226493 0.4 102216
23 апреля, пт
пт2300:00+10ю2275100 0.4 102227
03:00+11вюв2277100 1.6 102133
06:00+10юв3685100 0.5 1022146
09:00+13ю4670100 1.3 1022470
12:00+16ююз555662 1.4 10201593
15:00+17зюз4544100 2.9 10192340
18:00+14зсз346187 0.0 101889
21:00+12ююз226174 0.0 101810
24 апреля, сб
сб2400:00+11ююз3667100 0.0 1017111
03:00+9юз4981100 0.0 1016192
06:00+9ююз3678100 0.0 1015160
09:00+13юз8105794 0.0 10141054
12:00+15зюз91257100 0.6 10132080
15:00+10з696647 0.8 10151370
18:00+12з694747 0.1 10141506
21:00+7юз475862 0.1 1015128
25 апреля, вс
вс2500:00+5з5118599 0.1 1017621
03:00+4зюз612697 0.1 1017513
06:00+3з510825 0.0 1018333
09:00+8з57620 0.0 1019982
12:00+11з574299 0.1 10192399
15:00+12з5634100 0.1 10182434
18:00+10з3447100 0.0 1019204
21:00+8юз1151100 0.0 101910